Location: Sabana Grande
(18.0777°N, 66.9605°W)
Time: 07:21:41
(UTC-04:00)

BlueWalker 3 - Visible Passes

Search period start: 20 September 2024 00:00
Search period end: 30 September 2024 00:00
Orbit: 475 x 486 km, 53.2° (Epoch: 20 September)

Date Brightness Start Highest point End Pass type
(mag) Time Alt. Az. Time Alt. Az. Time Alt. Az.
20 Sep 3.3 19:20:52 10° NW 19:24:19 36° SW 19:27:47 10° SSE visible
21 Sep 3.1 18:53:03 10° NW 18:56:37 43° SW 19:00:11 10° SSE visible
28 Sep 2.9 05:38:24 10° SSW 05:41:57 46° SE 05:45:29 10° NE visible
29 Sep 3.2 05:10:38 10° SSW 05:14:05 38° SE 05:17:32 10° NE visible
